• In Austria
  • List of Countries
  • For 7 days
  • Water Temperature
  • Satellite Maps
  • Weather Map
  • News
  • Weather Widgets
  • user-avatar
    Login

    Hourly Weather Sydney

    Today, 13 December, Wednesday

    Time Temperature Precipitation Wind Pressure Humidity
    00:00 +20°C° 0 mm 3 mps 760 mmHg 88%
    01:00 +20°C° 0 mm 2 mps 760 mmHg 89%
    02:00 +20°C° 0 mm 2 mps 760 mmHg 91%
    03:00 +19°C° 0 mm 2 mps 760 mmHg 92%
    04:00 +19°C° 0 mm 2 mps 759 mmHg 94%
    05:00 +21°C° 0 mm 2 mps 759 mmHg 85%
    06:00 +24°C° 0 mm 2 mps 760 mmHg 76%
    07:00 +26°C° 0 mm 2 mps 760 mmHg 67%
    08:00 +29°C° 0 mm 3 mps 760 mmHg 57%
    09:00 +33°C° 0 mm 3 mps 759 mmHg 46%
    10:00 +36°C° 0 mm 4 mps 759 mmHg 36%
    11:00 +37°C° 0 mm 4 mps 759 mmHg 32%
    12:00 +39°C° 0 mm 5 mps 758 mmHg 28%
    13:00 +41°C° 0 mm 6 mps 757 mmHg 24%
    14:00 +39°C° 0 mm 7 mps 757 mmHg 27%
    15:00 +38°C° 0 mm 7 mps 756 mmHg 31%
    16:00 +37°C° 0 mm 8 mps 756 mmHg 34%
    17:00 +34°C° 0 mm 7 mps 756 mmHg 40%
    18:00 +32°C° 0 mm 7 mps 756 mmHg 45%
    19:00 +29°C° 0 mm 7 mps 756 mmHg 51%
    20:00 +28°C° 0 mm 7 mps 756 mmHg 54%
    21:00 +27°C° 0 mm 6 mps 756 mmHg 57%
    22:00 +26°C° 0 mm 6 mps 756 mmHg 61%
    23:00 +24°C° 0 mm 6 mps 756 mmHg 63%

    Tomorrow, 14 December, Thursday

    Time Temperature Precipitation Wind Pressure Humidity
    00:00 +25°C° 0 mm 5 mps 756 mmHg 66%
    01:00 +23°C° 0 mm 5 mps 756 mmHg 69%
    02:00 +22°C° 0 mm 5 mps 756 mmHg 69%
    03:00 +22°C° 0 mm 5 mps 755 mmHg 69%
    04:00 +21°C° 0 mm 5 mps 755 mmHg 70%
    05:00 +25°C° 0 mm 5 mps 755 mmHg 61%
    06:00 +27°C° 0 mm 4 mps 755 mmHg 52%
    07:00 +29°C° 0 mm 4 mps 756 mmHg 43%
    08:00 +33°C° 0 mm 5 mps 756 mmHg 35%
    09:00 +37°C° 0 mm 5 mps 755 mmHg 27%
    10:00 +42°C° 0 mm 5 mps 755 mmHg 18%
    11:00 +43°C° 0 mm 5 mps 755 mmHg 16%
    12:00 +45°C° 0 mm 6 mps 754 mmHg 15%
    13:00 +47°C° 0 mm 6 mps 754 mmHg 13%
    14:00 +45°C° 0 mm 6 mps 753 mmHg 16%
    15:00 +42°C° 0 mm 6 mps 753 mmHg 19%
    16:00 +40°C° 0 mm 6 mps 753 mmHg 23%
    17:00 +38°C° 0 mm 6 mps 753 mmHg 26%
    18:00 +36°C° 0 mm 6 mps 753 mmHg 30%
    19:00 +34°C° 0 mm 5 mps 754 mmHg 34%
    20:00 +33°C° 0 mm 5 mps 754 mmHg 37%
    21:00 +32°C° 0 mm 4 mps 755 mmHg 40%
    22:00 +30°C° 0 mm 3 mps 755 mmHg 43%
    23:00 +29°C° 0 mm 4 mps 755 mmHg 49%

    Day after tomorrow, 15 December, Friday

    Time Temperature Precipitation Wind Pressure Humidity
    00:00 +27°C° 0 mm 5 mps 755 mmHg 56%
    01:00 +26°C° 0 mm 6 mps 755 mmHg 62%
    02:00 +24°C° 0 mm 6 mps 756 mmHg 69%
    03:00 +23°C° 0 mm 6 mps 756 mmHg 75%
    04:00 +22°C° 0 mm 7 mps 757 mmHg 82%
    05:00 +22°C° 0 mm 7 mps 757 mmHg 80%
    06:00 +23°C° 0 mm 7 mps 758 mmHg 78%
    07:00 +23°C° 0 mm 7 mps 759 mmHg 76%
    08:00 +23°C° 0 mm 6 mps 759 mmHg 73%
    09:00 +25°C° 0 mm 5 mps 759 mmHg 70%
    10:00 +26°C° 0 mm 4 mps 759 mmHg 67%
    11:00 +27°C° 0 mm 4 mps 759 mmHg 61%
    12:00 +29°C° 0 mm 4 mps 758 mmHg 55%
    13:00 +32°C° 0 mm 4 mps 758 mmHg 50%
    14:00 +30°C° 0 mm 4 mps 758 mmHg 51%
    15:00 +30°C° 0 mm 3 mps 757 mmHg 52%
    16:00 +30°C° 0 mm 3 mps 757 mmHg 54%
    17:00 +28°C° 0 mm 3 mps 758 mmHg 59%
    18:00 +27°C° 0 mm 3 mps 758 mmHg 65%
    19:00 +26°C° 0 mm 3 mps 759 mmHg 71%
    20:00 +26°C° 0 mm 3 mps 759 mmHg 71%
    21:00 +26°C° 0 mm 3 mps 759 mmHg 70%
    22:00 +26°C° 0 mm 3 mps 759 mmHg 70%
    23:00 +26°C° 0 mm 3 mps 759 mmHg 69%

    16 December, Saturday

    Time Temperature Precipitation Wind Pressure Humidity
    00:00 +25°C° 0 mm 3 mps 758 mmHg 68%
    01:00 +25°C° 0 mm 3 mps 758 mmHg 68%
    02:00 +25°C° 0 mm 2 mps 758 mmHg 68%
    03:00 +24°C° 0 mm 2 mps 758 mmHg 69%
    04:00 +24°C° 0 mm 2 mps 758 mmHg 69%
    05:00 +26°C° 0 mm 2 mps 758 mmHg 63%
    06:00 +28°C° 0 mm 2 mps 759 mmHg 57%
    07:00 +30°C° 0 mm 2 mps 759 mmHg 52%
    08:00 +34°C° 0 mm 3 mps 759 mmHg 42%
    09:00 +37°C° 0 mm 3 mps 759 mmHg 31%
    10:00 +41°C° 0 mm 4 mps 759 mmHg 21%
    11:00 +42°C° 0 mm 4 mps 759 mmHg 21%
    12:00 +42°C° 0 mm 5 mps 758 mmHg 20%
    13:00 +42°C° 0 mm 5 mps 758 mmHg 19%
    14:00 +39°C° 0.1 mm 5 mps 757 mmHg 27%
    15:00 +36°C° 0.1 mm 5 mps 757 mmHg 34%
    16:00 +33°C° 0.1 mm 5 mps 757 mmHg 42%
    17:00 +32°C° 0.1 mm 5 mps 758 mmHg 48%
    18:00 +29°C° 0.1 mm 5 mps 758 mmHg 55%
    19:00 +28°C° 0.1 mm 5 mps 758 mmHg 61%
    20:00 +27°C° 0.1 mm 5 mps 759 mmHg 66%
    21:00 +26°C° 0.1 mm 4 mps 759 mmHg 71%
    22:00 +25°C° 0.1 mm 4 mps 759 mmHg 76%
    23:00 +25°C° 0 mm 4 mps 759 mmHg 79%

    17 December, Sunday

    Time Temperature Precipitation Wind Pressure Humidity
    00:00 +24°C° 0 mm 3 mps 759 mmHg 82%
    01:00 +24°C° 0 mm 3 mps 759 mmHg 85%
    02:00 +24°C° 0 mm 3 mps 759 mmHg 87%
    03:00 +24°C° 0 mm 3 mps 759 mmHg 88%
    04:00 +24°C° 0 mm 3 mps 759 mmHg 89%
    05:00 +24°C° 0 mm 3 mps 760 mmHg 86%
    06:00 +25°C° 0 mm 3 mps 760 mmHg 83%
    07:00 +26°C° 0 mm 2 mps 760 mmHg 80%
    08:00 +28°C° 0 mm 2 mps 760 mmHg 70%
    09:00 +31°C° 0 mm 2 mps 760 mmHg 59%
    10:00 +33°C° 0 mm 1 mps 760 mmHg 49%
    11:00 +35°C° 0 mm 2 mps 760 mmHg 46%
    12:00 +36°C° 0 mm 3 mps 759 mmHg 42%
    13:00 +38°C° 0 mm 3 mps 759 mmHg 39%
    14:00 +36°C° 0.2 mm 3 mps 758 mmHg 44%
    15:00 +35°C° 0.2 mm 3 mps 758 mmHg 49%
    16:00 +33°C° 0.2 mm 3 mps 758 mmHg 53%
    17:00 +30°C° 0.8 mm 3 mps 758 mmHg 61%
    18:00 +28°C° 0.8 mm 3 mps 759 mmHg 69%
    19:00 +26°C° 0.8 mm 3 mps 759 mmHg 77%
    20:00 +25°C° 0.1 mm 3 mps 759 mmHg 80%
    21:00 +25°C° 0.1 mm 2 mps 760 mmHg 83%
    22:00 +24°C° 0.1 mm 2 mps 760 mmHg 86%
    23:00 +24°C° 1.1 mm 2 mps 760 mmHg 88%

    18 December, Monday

    Time Temperature Precipitation Wind Pressure Humidity
    00:00 +24°C° 1.1 mm 3 mps 760 mmHg 89%
    01:00 +24°C° 1.1 mm 3 mps 759 mmHg 91%
    02:00 +24°C° 0.2 mm 3 mps 759 mmHg 92%
    03:00 +24°C° 0.2 mm 3 mps 759 mmHg 93%
    04:00 +22°C° 0.2 mm 3 mps 759 mmHg 94%
    05:00 +24°C° 0 mm 2 mps 759 mmHg 91%
    06:00 +25°C° 0 mm 2 mps 759 mmHg 89%
    07:00 +25°C° 0 mm 1 mps 759 mmHg 86%
    08:00 +28°C° 0 mm 1 mps 759 mmHg 74%
    09:00 +31°C° 0 mm 1 mps 759 mmHg 61%
    10:00 +34°C° 0 mm 1 mps 758 mmHg 48%
    11:00 +37°C° 0 mm 2 mps 758 mmHg 43%
    12:00 +39°C° 0 mm 3 mps 757 mmHg 38%
    13:00 +42°C° 0 mm 4 mps 756 mmHg 33%
    14:00 +40°C° 0 mm 4 mps 756 mmHg 36%
    15:00 +39°C° 0 mm 5 mps 755 mmHg 39%
    16:00 +37°C° 0 mm 5 mps 755 mmHg 42%
    17:00 +35°C° 0.3 mm 4 mps 755 mmHg 49%
    18:00 +33°C° 0.3 mm 4 mps 756 mmHg 56%
    19:00 +30°C° 0.3 mm 3 mps 756 mmHg 64%
    20:00 +29°C° 0.1 mm 3 mps 756 mmHg 67%
    21:00 +28°C° 0.1 mm 3 mps 757 mmHg 70%
    22:00 +27°C° 0.1 mm 3 mps 757 mmHg 74%
    23:00 +27°C° 0.1 mm 3 mps 756 mmHg 74%
    Show more